Year,Month,Day,Hour,Minute,Value (Times are PST for temperature in C)
2014,09,11,00,00,9.90
2014,09,11,00,01,9.90
2014,09,11,00,02,9.90
2014,09,11,00,03,9.80
2014,09,11,00,04,9.80
2014,09,11,00,05,9.80
2014,09,11,00,06,9.80
2014,09,11,00,07,9.80
2014,09,11,00,08,9.70
2014,09,11,00,09,9.70
2014,09,11,00,10,9.70
2014,09,11,00,11,9.70
2014,09,11,00,12,9.70
2014,09,11,00,13,9.70
2014,09,11,00,14,9.70
2014,09,11,00,15,9.70
2014,09,11,00,16,9.70
2014,09,11,00,17,9.70
2014,09,11,00,18,9.70
2014,09,11,00,19,9.70
2014,09,11,00,20,9.70
2014,09,11,00,21,9.70
2014,09,11,00,22,9.70
2014,09,11,00,23,9.80
2014,09,11,00,24,9.80
2014,09,11,00,25,9.80
2014,09,11,00,26,9.80
2014,09,11,00,27,9.80
2014,09,11,00,28,9.80
2014,09,11,00,29,9.80
2014,09,11,00,30,9.80
2014,09,11,00,31,9.80
2014,09,11,00,32,9.80
2014,09,11,00,33,9.80
2014,09,11,00,34,9.80
2014,09,11,00,35,9.80
2014,09,11,00,36,9.90
2014,09,11,00,37,10.10
2014,09,11,00,38,10.20
2014,09,11,00,39,10.30
2014,09,11,00,40,10.30
2014,09,11,00,41,10.40
2014,09,11,00,42,10.40
2014,09,11,00,43,10.40
2014,09,11,00,44,10.40
2014,09,11,00,45,10.40
2014,09,11,00,46,10.40
2014,09,11,00,47,10.40
2014,09,11,00,48,10.30
2014,09,11,00,49,10.30
2014,09,11,00,50,10.30
2014,09,11,00,51,10.20
2014,09,11,00,52,10.20
2014,09,11,00,53,10.20
2014,09,11,00,54,10.20
2014,09,11,00,55,10.10
2014,09,11,00,56,10.10
2014,09,11,00,57,10.10
2014,09,11,00,58,10.10
2014,09,11,00,59,10.10
2014,09,11,01,00,10.10
2014,09,11,01,01,10.10
2014,09,11,01,02,10.00
2014,09,11,01,03,10.00
2014,09,11,01,04,10.00
2014,09,11,01,05,9.90
2014,09,11,01,06,9.90
2014,09,11,01,07,9.90
2014,09,11,01,08,9.90
2014,09,11,01,09,9.90
2014,09,11,01,10,9.80
2014,09,11,01,11,9.80
2014,09,11,01,12,9.80
2014,09,11,01,13,9.80
2014,09,11,01,14,9.90
2014,09,11,01,15,9.90
2014,09,11,01,16,9.90
2014,09,11,01,17,9.90
2014,09,11,01,18,9.90
2014,09,11,01,19,9.90
2014,09,11,01,20,9.90
2014,09,11,01,21,9.90
2014,09,11,01,22,10.00
2014,09,11,01,23,10.00
2014,09,11,01,24,10.10
2014,09,11,01,25,10.10
2014,09,11,01,26,10.20
2014,09,11,01,27,10.20
2014,09,11,01,28,10.20
2014,09,11,01,29,10.30
2014,09,11,01,30,10.30
2014,09,11,01,31,10.30
2014,09,11,01,32,10.40
2014,09,11,01,33,10.50
2014,09,11,01,34,10.60
2014,09,11,01,35,10.70
2014,09,11,01,36,10.80
2014,09,11,01,37,10.90
2014,09,11,01,38,11.00
2014,09,11,01,39,11.00
2014,09,11,01,40,11.10
2014,09,11,01,41,11.10
2014,09,11,01,42,11.20
2014,09,11,01,43,11.20
2014,09,11,01,44,11.20
2014,09,11,01,45,11.30
2014,09,11,01,46,11.30
2014,09,11,01,47,11.30
2014,09,11,01,48,11.40
2014,09,11,01,49,11.40
2014,09,11,01,50,11.40
2014,09,11,01,51,11.40
2014,09,11,01,52,11.40
2014,09,11,01,53,11.50
2014,09,11,01,54,11.50
2014,09,11,01,55,11.60
2014,09,11,01,56,11.80
2014,09,11,01,57,12.00
2014,09,11,01,58,12.20
2014,09,11,01,59,12.30
2014,09,11,02,00,12.40
2014,09,11,02,01,12.50
2014,09,11,02,02,12.60
2014,09,11,02,03,12.70
2014,09,11,02,04,12.80
2014,09,11,02,05,12.90
2014,09,11,02,06,12.90
2014,09,11,02,07,13.00
2014,09,11,02,08,13.10
2014,09,11,02,09,13.20
2014,09,11,02,10,13.30
2014,09,11,02,11,13.50
2014,09,11,02,12,13.70
2014,09,11,02,13,13.90
2014,09,11,02,14,14.10
2014,09,11,02,15,14.20
2014,09,11,02,16,14.30
2014,09,11,02,17,14.40
2014,09,11,02,18,14.50
2014,09,11,02,19,14.50
2014,09,11,02,20,14.60
2014,09,11,02,21,14.60
2014,09,11,02,22,14.60
2014,09,11,02,23,14.60
2014,09,11,02,24,14.70
2014,09,11,02,25,14.70
2014,09,11,02,26,14.60
2014,09,11,02,27,14.60
2014,09,11,02,28,14.60
2014,09,11,02,29,14.60
2014,09,11,02,30,14.60
2014,09,11,02,31,14.60
2014,09,11,02,32,14.60
2014,09,11,02,33,14.60
2014,09,11,02,34,14.60
2014,09,11,02,35,14.60
2014,09,11,02,36,14.70
2014,09,11,02,37,14.70
2014,09,11,02,38,14.60
2014,09,11,02,39,14.60
2014,09,11,02,40,14.60
2014,09,11,02,41,14.60
2014,09,11,02,42,14.60
2014,09,11,02,43,14.60
2014,09,11,02,44,14.60
2014,09,11,02,45,14.60
2014,09,11,02,46,14.60
2014,09,11,02,47,14.50
2014,09,11,02,48,14.40
2014,09,11,02,49,14.40
2014,09,11,02,50,14.40
2014,09,11,02,51,14.40
2014,09,11,02,52,14.40
2014,09,11,02,53,14.40
2014,09,11,02,54,14.40
2014,09,11,02,55,14.30
2014,09,11,02,56,14.30
2014,09,11,02,57,14.30
2014,09,11,02,58,14.30
2014,09,11,02,59,14.40
2014,09,11,03,00,14.40
2014,09,11,03,01,14.40
2014,09,11,03,02,14.50
2014,09,11,03,03,14.50
2014,09,11,03,04,14.60
2014,09,11,03,05,14.60
2014,09,11,03,06,14.60
2014,09,11,03,07,14.70
2014,09,11,03,08,14.70
2014,09,11,03,09,14.70
2014,09,11,03,10,14.70
2014,09,11,03,11,14.70
2014,09,11,03,12,14.70
2014,09,11,03,13,14.70
2014,09,11,03,14,14.70
2014,09,11,03,15,14.70
2014,09,11,03,16,14.60
2014,09,11,03,17,14.60
2014,09,11,03,18,14.60
2014,09,11,03,19,14.60
2014,09,11,03,20,14.60
2014,09,11,03,21,14.60
2014,09,11,03,22,14.60
2014,09,11,03,23,14.60
2014,09,11,03,24,14.60
2014,09,11,03,25,14.60
2014,09,11,03,26,14.60
2014,09,11,03,27,14.50
2014,09,11,03,28,14.50
2014,09,11,03,29,14.50
2014,09,11,03,30,14.50
2014,09,11,03,31,14.50
2014,09,11,03,32,14.50
2014,09,11,03,33,14.50
2014,09,11,03,34,14.40
2014,09,11,03,35,14.50
2014,09,11,03,36,14.50
2014,09,11,03,37,14.50
2014,09,11,03,38,14.50
2014,09,11,03,39,14.50
2014,09,11,03,40,14.60
2014,09,11,03,41,14.60
2014,09,11,03,42,14.60
2014,09,11,03,43,14.60
2014,09,11,03,44,14.60
2014,09,11,03,45,14.60
2014,09,11,03,46,14.60
2014,09,11,03,47,14.60
2014,09,11,03,48,14.60
2014,09,11,03,49,14.60
2014,09,11,03,50,14.60
2014,09,11,03,51,14.60
2014,09,11,03,52,14.60
2014,09,11,03,53,14.60
2014,09,11,03,54,14.60
2014,09,11,03,55,14.60
2014,09,11,03,56,14.60
2014,09,11,03,57,14.60
2014,09,11,03,58,14.60
2014,09,11,03,59,14.50
2014,09,11,04,00,14.40
2014,09,11,04,01,14.40
2014,09,11,04,02,14.30
2014,09,11,04,03,14.30
2014,09,11,04,04,14.20
2014,09,11,04,05,14.20
2014,09,11,04,06,14.10
2014,09,11,04,07,14.10
2014,09,11,04,08,14.10
2014,09,11,04,09,14.10
2014,09,11,04,10,14.00
2014,09,11,04,11,14.00
2014,09,11,04,12,13.90
2014,09,11,04,13,13.90
2014,09,11,04,14,13.80
2014,09,11,04,15,13.80
2014,09,11,04,16,13.70
2014,09,11,04,17,13.60
2014,09,11,04,18,13.60
2014,09,11,04,19,13.50
2014,09,11,04,20,13.40
2014,09,11,04,21,13.40
2014,09,11,04,22,13.30
2014,09,11,04,23,13.30
2014,09,11,04,24,13.20
2014,09,11,04,25,13.20
2014,09,11,04,26,13.10
2014,09,11,04,27,13.10
2014,09,11,04,28,13.00
2014,09,11,04,29,13.00
2014,09,11,04,30,12.90
2014,09,11,04,31,12.90
2014,09,11,04,32,12.90
2014,09,11,04,33,12.80
2014,09,11,04,34,12.80
2014,09,11,04,35,12.80
2014,09,11,04,36,12.70
2014,09,11,04,37,12.70
2014,09,11,04,38,12.60
2014,09,11,04,39,12.50
2014,09,11,04,40,12.40
2014,09,11,04,41,12.40
2014,09,11,04,42,12.30
2014,09,11,04,43,12.20
2014,09,11,04,44,12.10
2014,09,11,04,45,12.00
2014,09,11,04,46,11.90
2014,09,11,04,47,11.80
2014,09,11,04,48,11.80
2014,09,11,04,49,11.70
2014,09,11,04,50,11.60
2014,09,11,04,51,11.60
2014,09,11,04,52,11.50
2014,09,11,04,53,11.40
2014,09,11,04,54,11.40
2014,09,11,04,55,11.30
2014,09,11,04,56,11.20
2014,09,11,04,57,11.10
2014,09,11,04,58,11.10
2014,09,11,04,59,11.00
2014,09,11,05,00,10.90
2014,09,11,05,01,10.80
2014,09,11,05,02,10.80
2014,09,11,05,03,10.80
2014,09,11,05,04,10.80
2014,09,11,05,05,10.70
2014,09,11,05,06,10.70
2014,09,11,05,07,10.70
2014,09,11,05,08,10.60
2014,09,11,05,09,10.60
2014,09,11,05,10,10.60
2014,09,11,05,11,10.50
2014,09,11,05,12,10.50
2014,09,11,05,13,10.50
2014,09,11,05,14,10.40
2014,09,11,05,15,10.40
2014,09,11,05,16,10.30
2014,09,11,05,17,10.30
2014,09,11,05,18,10.20
2014,09,11,05,19,10.20
2014,09,11,05,20,10.10
2014,09,11,05,21,10.00
2014,09,11,05,22,9.90
2014,09,11,05,23,9.90
2014,09,11,05,24,9.80
2014,09,11,05,25,9.80
2014,09,11,05,26,9.70
2014,09,11,05,27,9.70
2014,09,11,05,28,9.60
2014,09,11,05,29,9.50
2014,09,11,05,30,9.50
2014,09,11,05,31,9.40
2014,09,11,05,32,9.40
2014,09,11,05,33,9.30
2014,09,11,05,34,9.30
2014,09,11,05,35,9.30
2014,09,11,05,36,9.20
2014,09,11,05,37,9.20
2014,09,11,05,38,9.20
2014,09,11,05,39,9.20
2014,09,11,05,40,9.20
2014,09,11,05,41,9.20
2014,09,11,05,42,9.20
2014,09,11,05,43,9.20
2014,09,11,05,44,9.20
2014,09,11,05,45,9.20
2014,09,11,05,46,9.20
2014,09,11,05,47,9.20
2014,09,11,05,48,9.20
2014,09,11,05,49,9.20
2014,09,11,05,50,9.10
2014,09,11,05,51,9.10
2014,09,11,05,52,9.10
2014,09,11,05,53,9.10
2014,09,11,05,54,9.10
2014,09,11,05,55,9.00
2014,09,11,05,56,9.00
2014,09,11,05,57,8.90
2014,09,11,05,58,8.90
2014,09,11,05,59,8.90
2014,09,11,06,00,8.80
2014,09,11,06,01,8.80
2014,09,11,06,02,8.80
2014,09,11,06,03,8.80
2014,09,11,06,04,8.80
2014,09,11,06,05,8.80
2014,09,11,06,06,8.80
2014,09,11,06,07,8.70
2014,09,11,06,08,8.70
2014,09,11,06,09,8.70
2014,09,11,06,10,8.70
2014,09,11,06,11,8.60
2014,09,11,06,12,8.60
2014,09,11,06,13,8.60
2014,09,11,06,14,8.60
2014,09,11,06,15,8.50
2014,09,11,06,16,8.50
2014,09,11,06,17,8.40
2014,09,11,06,18,8.40
2014,09,11,06,19,8.40
2014,09,11,06,20,8.40
2014,09,11,06,21,8.30
2014,09,11,06,22,8.30
2014,09,11,06,23,8.30
2014,09,11,06,24,8.30
2014,09,11,06,25,8.20
2014,09,11,06,26,8.20
2014,09,11,06,27,8.20
2014,09,11,06,28,8.20
2014,09,11,06,29,8.20
2014,09,11,06,30,8.20
2014,09,11,06,31,8.20
2014,09,11,06,32,8.20
2014,09,11,06,33,8.20
2014,09,11,06,34,8.10
2014,09,11,06,35,8.10
2014,09,11,06,36,8.10
2014,09,11,06,37,8.10
2014,09,11,06,38,8.10
2014,09,11,06,39,8.10
2014,09,11,06,40,8.10
2014,09,11,06,41,8.10
2014,09,11,06,42,8.10
2014,09,11,06,43,8.10
2014,09,11,06,44,8.10
2014,09,11,06,45,8.10
2014,09,11,06,46,8.10
2014,09,11,06,47,8.10
2014,09,11,06,48,8.10
2014,09,11,06,49,8.10
2014,09,11,06,50,8.10
2014,09,11,06,51,8.10
2014,09,11,06,52,8.10
2014,09,11,06,53,8.10
2014,09,11,06,54,8.10
2014,09,11,06,55,8.10
2014,09,11,06,56,8.10
2014,09,11,06,57,8.10
2014,09,11,06,58,8.00
2014,09,11,06,59,8.00
2014,09,11,07,00,8.00
2014,09,11,07,01,8.00
2014,09,11,07,02,8.00
2014,09,11,07,03,8.00
2014,09,11,07,04,8.00
2014,09,11,07,05,7.90
2014,09,11,07,06,7.90
2014,09,11,07,07,7.90
2014,09,11,07,08,7.90
2014,09,11,07,09,7.90
2014,09,11,07,10,7.90
2014,09,11,07,11,7.90
2014,09,11,07,12,7.90
2014,09,11,07,13,7.90
2014,09,11,07,14,7.90
2014,09,11,07,15,7.90
2014,09,11,07,16,7.90
2014,09,11,07,17,7.90
2014,09,11,07,18,7.90
2014,09,11,07,19,7.90
2014,09,11,07,20,7.90
2014,09,11,07,21,7.90
2014,09,11,07,22,7.90
2014,09,11,07,23,7.90
2014,09,11,07,24,8.00
2014,09,11,07,25,8.00
2014,09,11,07,26,8.00
2014,09,11,07,27,8.10
2014,09,11,07,28,8.10
2014,09,11,07,29,8.10
2014,09,11,07,30,8.20
2014,09,11,07,31,8.20
2014,09,11,07,32,8.20
2014,09,11,07,33,8.20
2014,09,11,07,34,8.20
2014,09,11,07,35,8.20
2014,09,11,07,36,8.20
2014,09,11,07,37,8.30
2014,09,11,07,38,8.30
2014,09,11,07,39,8.30
2014,09,11,07,40,8.30
2014,09,11,07,41,8.40
2014,09,11,07,42,8.40
2014,09,11,07,43,8.40
2014,09,11,07,44,8.40
2014,09,11,07,45,8.40
2014,09,11,07,46,8.40
2014,09,11,07,47,8.40
2014,09,11,07,48,8.50
2014,09,11,07,49,8.50
2014,09,11,07,50,8.50
2014,09,11,07,51,8.60
2014,09,11,07,52,8.60
2014,09,11,07,53,8.60
2014,09,11,07,54,8.60
2014,09,11,07,55,8.60
2014,09,11,07,56,8.60
2014,09,11,07,57,8.70
2014,09,11,07,58,8.70
2014,09,11,07,59,8.70
2014,09,11,08,00,8.80
2014,09,11,08,01,8.80
2014,09,11,08,02,8.80
2014,09,11,08,03,8.80
2014,09,11,08,04,8.90
2014,09,11,08,05,8.90
2014,09,11,08,06,9.00
2014,09,11,08,07,9.00
2014,09,11,08,08,9.10
2014,09,11,08,09,9.10
2014,09,11,08,10,9.10
2014,09,11,08,11,9.20
2014,09,11,08,12,9.20
2014,09,11,08,13,9.20
2014,09,11,08,14,9.20
2014,09,11,08,15,9.30
2014,09,11,08,16,9.30
2014,09,11,08,17,9.30
2014,09,11,08,18,9.30
2014,09,11,08,19,9.30
2014,09,11,08,20,9.30
2014,09,11,08,21,9.40
2014,09,11,08,22,9.40
2014,09,11,08,23,9.40
2014,09,11,08,24,9.50
2014,09,11,08,25,9.50
2014,09,11,08,26,9.60
2014,09,11,08,27,9.60
2014,09,11,08,28,9.60
2014,09,11,08,29,9.70
2014,09,11,08,30,9.70
2014,09,11,08,31,9.80
2014,09,11,08,32,9.80
2014,09,11,08,33,9.80
2014,09,11,08,34,9.90
2014,09,11,08,35,9.90
2014,09,11,08,36,10.00
2014,09,11,08,37,10.00
2014,09,11,08,38,10.10
2014,09,11,08,39,10.20
2014,09,11,08,40,10.20
2014,09,11,08,41,10.30
2014,09,11,08,42,10.40
2014,09,11,08,43,10.50
2014,09,11,08,44,10.60
2014,09,11,08,45,10.70
2014,09,11,08,46,10.80
2014,09,11,08,47,10.90
2014,09,11,08,48,11.00
2014,09,11,08,49,11.10
2014,09,11,08,50,11.10
2014,09,11,08,51,11.10
2014,09,11,08,52,11.20
2014,09,11,08,53,11.20
2014,09,11,08,54,11.20
2014,09,11,08,55,11.30
2014,09,11,08,56,11.30
2014,09,11,08,57,11.40
2014,09,11,08,58,11.50
2014,09,11,08,59,11.60
2014,09,11,09,00,11.70
2014,09,11,09,01,11.90
2014,09,11,09,02,12.00
2014,09,11,09,03,12.20
2014,09,11,09,04,12.30
2014,09,11,09,05,12.50
2014,09,11,09,06,12.70
2014,09,11,09,07,12.90
2014,09,11,09,08,13.00
2014,09,11,09,09,13.20
2014,09,11,09,10,13.40
2014,09,11,09,11,13.50
2014,09,11,09,12,13.70
2014,09,11,09,13,13.80
2014,09,11,09,14,14.00
2014,09,11,09,15,14.10
2014,09,11,09,16,14.30
2014,09,11,09,17,14.40
2014,09,11,09,18,14.50
2014,09,11,09,19,14.60
2014,09,11,09,20,14.70
2014,09,11,09,21,14.90
2014,09,11,09,22,15.00
2014,09,11,09,23,15.00
2014,09,11,09,24,15.00
2014,09,11,09,25,15.00
2014,09,11,09,26,15.20
2014,09,11,09,27,15.30
2014,09,11,09,28,15.40
2014,09,11,09,29,15.50
2014,09,11,09,30,15.60
2014,09,11,09,31,15.60
2014,09,11,09,32,15.70
2014,09,11,09,33,15.70
2014,09,11,09,34,15.80
2014,09,11,09,35,15.90
2014,09,11,09,36,16.00
2014,09,11,09,37,16.00
2014,09,11,09,38,16.10
2014,09,11,09,39,16.20
2014,09,11,09,40,16.20
2014,09,11,09,41,16.20
2014,09,11,09,42,16.30
2014,09,11,09,43,16.30
2014,09,11,09,44,16.30
2014,09,11,09,45,16.30
2014,09,11,09,46,16.30
2014,09,11,09,47,16.30
2014,09,11,09,48,16.30
2014,09,11,09,49,16.40
2014,09,11,09,50,16.40
2014,09,11,09,51,16.50
2014,09,11,09,52,16.50
2014,09,11,09,53,16.50
2014,09,11,09,54,16.50
2014,09,11,09,55,16.60
2014,09,11,09,56,16.60
2014,09,11,09,57,16.60
2014,09,11,09,58,16.60
2014,09,11,09,59,16.60
2014,09,11,10,00,16.60
2014,09,11,10,01,16.60
2014,09,11,10,02,16.60
2014,09,11,10,03,16.60
2014,09,11,10,04,16.60
2014,09,11,10,05,16.60
2014,09,11,10,06,16.60
2014,09,11,10,07,16.60
2014,09,11,10,08,16.60
2014,09,11,10,09,16.60
2014,09,11,10,10,16.60
2014,09,11,10,11,16.70
2014,09,11,10,12,16.70
2014,09,11,10,13,16.70
2014,09,11,10,14,16.80
2014,09,11,10,15,16.80
2014,09,11,10,16,16.80
2014,09,11,10,17,16.80
2014,09,11,10,18,16.80
2014,09,11,10,19,16.80
2014,09,11,10,20,16.80
2014,09,11,10,21,16.90
2014,09,11,10,22,16.90
2014,09,11,10,23,16.90
2014,09,11,10,24,16.90
2014,09,11,10,25,17.00
2014,09,11,10,26,17.00
2014,09,11,10,27,17.10
2014,09,11,10,28,17.10
2014,09,11,10,29,17.10
2014,09,11,10,30,17.10
2014,09,11,10,31,17.10
2014,09,11,10,32,17.10
2014,09,11,10,33,17.20
2014,09,11,10,34,17.20
2014,09,11,10,35,17.20
2014,09,11,10,36,17.30
2014,09,11,10,37,17.30
2014,09,11,10,38,17.40
2014,09,11,10,39,17.40
2014,09,11,10,40,17.50
2014,09,11,10,41,17.50
2014,09,11,10,42,17.60
2014,09,11,10,43,17.60
2014,09,11,10,44,17.70
2014,09,11,10,45,17.70
2014,09,11,10,46,17.70
2014,09,11,10,47,17.60
2014,09,11,10,48,17.60
2014,09,11,10,49,17.50
2014,09,11,10,50,17.40
2014,09,11,10,51,17.40
2014,09,11,10,52,17.40
2014,09,11,10,53,17.50
2014,09,11,10,54,17.50
2014,09,11,10,55,17.50
2014,09,11,10,56,17.60
2014,09,11,10,57,17.60
2014,09,11,10,58,17.70
2014,09,11,10,59,17.70
2014,09,11,11,00,17.70
2014,09,11,11,01,17.80
2014,09,11,11,02,17.80
2014,09,11,11,03,17.90
2014,09,11,11,04,17.90
2014,09,11,11,05,17.90
2014,09,11,11,06,17.90
2014,09,11,11,07,17.90
2014,09,11,11,08,17.90
2014,09,11,11,09,18.00
2014,09,11,11,10,18.00
2014,09,11,11,11,18.00
2014,09,11,11,12,18.10
2014,09,11,11,13,18.10
2014,09,11,11,14,18.20
2014,09,11,11,15,18.20
2014,09,11,11,16,18.20
2014,09,11,11,17,18.20
2014,09,11,11,18,18.20
2014,09,11,11,19,18.30
2014,09,11,11,20,18.30
2014,09,11,11,21,18.40
2014,09,11,11,22,18.40
2014,09,11,11,23,18.50
2014,09,11,11,24,18.60
2014,09,11,11,25,18.60
2014,09,11,11,26,18.70
2014,09,11,11,27,18.70
2014,09,11,11,28,18.70
2014,09,11,11,29,18.80
2014,09,11,11,30,18.80
2014,09,11,11,31,18.80
2014,09,11,11,32,18.90
2014,09,11,11,33,18.90
2014,09,11,11,34,18.90
2014,09,11,11,35,18.90
2014,09,11,11,36,18.90
2014,09,11,11,37,18.80
2014,09,11,11,38,18.80
2014,09,11,11,39,18.80
2014,09,11,11,40,18.80
2014,09,11,11,41,18.80
2014,09,11,11,42,18.80
2014,09,11,11,43,18.80
2014,09,11,11,44,18.80
2014,09,11,11,45,18.80
2014,09,11,11,46,18.90
2014,09,11,11,47,18.90
2014,09,11,11,48,18.90
2014,09,11,11,49,19.00
2014,09,11,11,50,19.00
2014,09,11,11,51,19.10
2014,09,11,11,52,19.10
2014,09,11,11,53,19.10
2014,09,11,11,54,19.10
2014,09,11,11,55,19.20
2014,09,11,11,56,19.20
2014,09,11,11,57,19.20
2014,09,11,11,58,19.10
2014,09,11,11,59,19.10
2014,09,11,12,00,19.10
2014,09,11,12,01,19.10
2014,09,11,12,02,19.00
2014,09,11,12,03,19.00
2014,09,11,12,04,18.90
2014,09,11,12,05,18.90
2014,09,11,12,06,19.00
2014,09,11,12,07,19.00
2014,09,11,12,08,19.10
2014,09,11,12,09,19.20
2014,09,11,12,10,19.30
2014,09,11,12,11,19.40
2014,09,11,12,12,19.40
2014,09,11,12,13,19.50
2014,09,11,12,14,19.60
2014,09,11,12,15,19.60
2014,09,11,12,16,19.60
2014,09,11,12,17,19.60
2014,09,11,12,18,19.70
2014,09,11,12,19,19.70
2014,09,11,12,20,19.70
2014,09,11,12,21,19.70
2014,09,11,12,22,19.70
2014,09,11,12,23,19.70
2014,09,11,12,24,19.70
2014,09,11,12,25,19.80
2014,09,11,12,26,19.80
2014,09,11,12,27,19.90
2014,09,11,12,28,19.90
2014,09,11,12,29,20.00
2014,09,11,12,30,20.10
2014,09,11,12,31,20.10
2014,09,11,12,32,20.10
2014,09,11,12,33,20.10
2014,09,11,12,34,20.00
2014,09,11,12,35,20.00
2014,09,11,12,36,20.00
2014,09,11,12,37,20.00
2014,09,11,12,38,20.10
2014,09,11,12,39,20.10
2014,09,11,12,40,20.20
2014,09,11,12,41,20.20
2014,09,11,12,42,20.30
2014,09,11,12,43,20.30
2014,09,11,12,44,20.40
2014,09,11,12,45,20.40
2014,09,11,12,46,20.40
2014,09,11,12,47,20.40
2014,09,11,12,48,20.40
2014,09,11,12,49,20.30
2014,09,11,12,50,20.30
2014,09,11,12,51,20.30
2014,09,11,12,52,20.30
2014,09,11,12,53,20.30
2014,09,11,12,54,20.40
2014,09,11,12,55,20.40
2014,09,11,12,56,20.40
2014,09,11,12,57,20.40
2014,09,11,12,58,20.50
2014,09,11,12,59,20.50
2014,09,11,13,00,20.60
2014,09,11,13,01,20.50
2014,09,11,13,02,20.50
2014,09,11,13,03,20.50
2014,09,11,13,04,20.60
2014,09,11,13,05,20.60
2014,09,11,13,06,20.50
2014,09,11,13,07,20.50
2014,09,11,13,08,20.40
2014,09,11,13,09,20.40
2014,09,11,13,10,20.40
2014,09,11,13,11,20.40
2014,09,11,13,12,20.40
2014,09,11,13,13,20.50
2014,09,11,13,14,20.50
2014,09,11,13,15,20.50
2014,09,11,13,16,20.40
2014,09,11,13,17,20.40
2014,09,11,13,18,20.40
2014,09,11,13,19,20.40
2014,09,11,13,20,20.50
2014,09,11,13,21,20.60
2014,09,11,13,22,20.60
2014,09,11,13,23,20.70
2014,09,11,13,24,20.70
2014,09,11,13,25,20.80
2014,09,11,13,26,20.80
2014,09,11,13,27,20.80
2014,09,11,13,28,20.80
2014,09,11,13,29,20.80
2014,09,11,13,30,20.90
2014,09,11,13,31,20.90
2014,09,11,13,32,21.00
2014,09,11,13,33,20.90
2014,09,11,13,34,21.00
2014,09,11,13,35,21.00
2014,09,11,13,36,20.90
2014,09,11,13,37,20.80
2014,09,11,13,38,20.80
2014,09,11,13,39,20.80
2014,09,11,13,40,20.90
2014,09,11,13,41,21.00
2014,09,11,13,42,21.00
2014,09,11,13,43,21.10
2014,09,11,13,44,21.20
2014,09,11,13,45,21.20
2014,09,11,13,46,21.20
2014,09,11,13,47,21.20
2014,09,11,13,48,21.20
2014,09,11,13,49,21.20
2014,09,11,13,50,21.20
2014,09,11,13,51,21.10
2014,09,11,13,52,21.10
2014,09,11,13,53,21.10
2014,09,11,13,54,21.10
2014,09,11,13,55,21.20
2014,09,11,13,56,21.30
2014,09,11,13,57,21.40
2014,09,11,13,58,21.40
2014,09,11,13,59,21.50
2014,09,11,14,00,21.60
2014,09,11,14,01,21.60
2014,09,11,14,02,21.70
2014,09,11,14,03,21.80
2014,09,11,14,04,21.80
2014,09,11,14,05,21.80
2014,09,11,14,06,21.80
2014,09,11,14,07,21.80
2014,09,11,14,08,21.80
2014,09,11,14,09,21.90
2014,09,11,14,10,21.90
2014,09,11,14,11,21.90
2014,09,11,14,12,21.90
2014,09,11,14,13,21.90
2014,09,11,14,14,21.90
2014,09,11,14,15,21.90
2014,09,11,14,16,21.90
2014,09,11,14,17,21.90
2014,09,11,14,18,21.90
2014,09,11,14,19,21.80
2014,09,11,14,20,21.80
2014,09,11,14,21,21.80
2014,09,11,14,22,21.80
2014,09,11,14,23,21.80
2014,09,11,14,24,21.80
2014,09,11,14,25,21.80
2014,09,11,14,26,21.80
2014,09,11,14,27,21.80
2014,09,11,14,28,21.90
2014,09,11,14,29,21.90
2014,09,11,14,30,21.90
2014,09,11,14,31,22.00
2014,09,11,14,32,22.00
2014,09,11,14,33,22.10
2014,09,11,14,34,22.10
2014,09,11,14,35,22.20
2014,09,11,14,36,22.30
2014,09,11,14,37,22.40
2014,09,11,14,38,22.40
2014,09,11,14,39,22.40
2014,09,11,14,40,22.40
2014,09,11,14,41,22.40
2014,09,11,14,42,22.30
2014,09,11,14,43,22.30
2014,09,11,14,44,22.40
2014,09,11,14,45,22.40
2014,09,11,14,46,22.40
2014,09,11,14,47,22.50
2014,09,11,14,48,22.60
2014,09,11,14,49,22.60
2014,09,11,14,50,22.70
2014,09,11,14,51,22.70
2014,09,11,14,52,22.70
2014,09,11,14,53,22.70
2014,09,11,14,54,22.60
2014,09,11,14,55,22.60
2014,09,11,14,56,22.70
2014,09,11,14,57,22.70
2014,09,11,14,58,22.70
2014,09,11,14,59,22.70
2014,09,11,15,00,22.70
2014,09,11,15,01,22.70
2014,09,11,15,02,22.70
2014,09,11,15,03,22.70
2014,09,11,15,04,22.80
2014,09,11,15,05,22.70
2014,09,11,15,06,22.70
2014,09,11,15,07,22.70
2014,09,11,15,08,22.70
2014,09,11,15,09,22.70
2014,09,11,15,10,22.70
2014,09,11,15,11,22.60
2014,09,11,15,12,22.60
2014,09,11,15,13,22.60
2014,09,11,15,14,22.60
2014,09,11,15,15,22.60
2014,09,11,15,16,22.50
2014,09,11,15,17,22.50
2014,09,11,15,18,22.50
2014,09,11,15,19,22.40
2014,09,11,15,20,22.40
2014,09,11,15,21,22.50
2014,09,11,15,22,22.50
2014,09,11,15,23,22.50
2014,09,11,15,24,22.50
2014,09,11,15,25,22.50
2014,09,11,15,26,22.50
2014,09,11,15,27,22.60
2014,09,11,15,28,22.60
2014,09,11,15,29,22.70
2014,09,11,15,30,22.70
2014,09,11,15,31,22.70
2014,09,11,15,32,22.80
2014,09,11,15,33,22.80
2014,09,11,15,34,22.80
2014,09,11,15,35,22.80
2014,09,11,15,36,22.80
2014,09,11,15,37,22.90
2014,09,11,15,38,22.90
2014,09,11,15,39,22.90
2014,09,11,15,40,22.80
2014,09,11,15,41,22.90
2014,09,11,15,42,22.90
2014,09,11,15,43,22.90
2014,09,11,15,44,22.90
2014,09,11,15,45,22.90
2014,09,11,15,46,22.90
2014,09,11,15,47,22.90
2014,09,11,15,48,22.80
2014,09,11,15,49,22.70
2014,09,11,15,50,22.70
2014,09,11,15,51,22.60
2014,09,11,15,52,22.60
2014,09,11,15,53,22.60
2014,09,11,15,54,22.50
2014,09,11,15,55,22.60
2014,09,11,15,56,22.60
2014,09,11,15,57,22.70
2014,09,11,15,58,22.80
2014,09,11,15,59,22.90
2014,09,11,16,00,23.00
2014,09,11,16,01,23.10
2014,09,11,16,02,23.20
2014,09,11,16,03,23.30
2014,09,11,16,04,23.30
2014,09,11,16,05,23.40
2014,09,11,16,06,23.40
2014,09,11,16,07,23.40
2014,09,11,16,08,23.50
2014,09,11,16,09,23.50
2014,09,11,16,10,23.50
2014,09,11,16,11,23.50
2014,09,11,16,12,23.60
2014,09,11,16,13,23.60
2014,09,11,16,14,23.60
2014,09,11,16,15,23.60
2014,09,11,16,16,23.60
2014,09,11,16,17,23.60
2014,09,11,16,18,23.60
2014,09,11,16,19,23.60
2014,09,11,16,20,23.60
2014,09,11,16,21,23.50
2014,09,11,16,22,23.40
2014,09,11,16,23,23.40
2014,09,11,16,24,23.40
2014,09,11,16,25,23.40
2014,09,11,16,26,23.50
2014,09,11,16,27,23.60
2014,09,11,16,28,23.60
2014,09,11,16,29,23.60
2014,09,11,16,30,23.60
2014,09,11,16,31,23.60
2014,09,11,16,32,23.60
2014,09,11,16,33,23.60
2014,09,11,16,34,23.70
2014,09,11,16,35,23.70
2014,09,11,16,36,23.80
2014,09,11,16,37,23.80
2014,09,11,16,38,23.90
2014,09,11,16,39,23.90
2014,09,11,16,40,23.90
2014,09,11,16,41,24.00
2014,09,11,16,42,24.00
2014,09,11,16,43,24.10
2014,09,11,16,44,24.10
2014,09,11,16,45,24.10
2014,09,11,16,46,24.10
2014,09,11,16,47,24.20
2014,09,11,16,48,24.20
2014,09,11,16,49,24.10
2014,09,11,16,50,24.00
2014,09,11,16,51,24.00
2014,09,11,16,52,23.90
2014,09,11,16,53,23.90
2014,09,11,16,54,23.90
2014,09,11,16,55,23.90
2014,09,11,16,56,23.70
2014,09,11,16,57,23.50
2014,09,11,16,58,23.30
2014,09,11,16,59,23.30
2014,09,11,17,00,23.30
2014,09,11,17,01,23.30
2014,09,11,17,02,23.30
2014,09,11,17,03,23.30
2014,09,11,17,04,23.30
2014,09,11,17,05,23.30
2014,09,11,17,06,23.30
2014,09,11,17,07,23.30
2014,09,11,17,08,23.30
2014,09,11,17,09,23.30
2014,09,11,17,10,23.30
2014,09,11,17,11,23.30
2014,09,11,17,12,23.30
2014,09,11,17,13,23.30
2014,09,11,17,14,23.30
2014,09,11,17,15,23.30
2014,09,11,17,16,23.30
2014,09,11,17,17,23.30
2014,09,11,17,18,23.30
2014,09,11,17,19,23.40
2014,09,11,17,20,23.40
2014,09,11,17,21,23.40
2014,09,11,17,22,23.30
2014,09,11,17,23,23.20
2014,09,11,17,24,23.10
2014,09,11,17,25,23.10
2014,09,11,17,26,23.10
2014,09,11,17,27,23.10
2014,09,11,17,28,23.20
2014,09,11,17,29,23.20
2014,09,11,17,30,23.30